Home   Weather   Karachi   Past weeks
Flag for Pakistan

Past Weather in Karachi, Sindh, Pakistan — Yesterday and Last 2 Weeks

Now
86 °F

Scattered clouds.


Feels Like: 95 °F
Forecast: 91 / 84 °F
Wind: 12 mph from West

Location: Karachi Airport

Current Time: May 25, 2020 at 8:46:29 am

Latest Report: May 25, 2020 at 7:55 am


Visibility: 4 mi

Pressure: 29.77 "Hg

Humidity: 70%

Dew Point: 75 °F

Location of KarachiLocation

Past Weather in Karachi — Graph

°F

Karachi Temperature Yesterday

Maximum temperature yesterday: 97 °F (at 1:00 pm)
Minimum temperature yesterday: 82 °F (at 4:55 am)
Average temperature yesterday: 89 °F

High & Low Weather Summary for the Past Weeks

 TemperatureHumidityPressure
High104 °F (May 20, 12:55 pm)94% (May 20, 6:25 am)29.80 "Hg (May 20, 6:25 am)
Low81 °F (May 17, 4:55 am)17% (May 20, 1:55 pm)29.56 "Hg (May 20, 4:00 pm)
Average88 °F61%29.70 "Hg
* Reported May 10 7:25 am — May 25 7:25 am, Karachi. Weather by CustomWeather, © 2020

Note: Actual official high and low records may vary slightly from our data, if they occured in-between our weather recording intervals... More about our weather records

Karachi Weather History for the Previous 24 Hours

Scroll right to see more
 ConditionsComfort  
Time TempWeatherWind HumidityBarometerVisibility
7:25 am
Mon, May 25
84 °FScattered clouds.18 mph74%29.74 "Hg4 mi
6:55 am82 °FScattered clouds.14 mph84%29.74 "Hg4 mi
6:25 am82 °FScattered clouds.14 mph84%29.74 "Hg4 mi
5:55 am82 °FPassing clouds.15 mph84%29.74 "Hg4 mi
5:25 am82 °FPassing clouds.20 mph79%29.71 "Hg4 mi
4:55 am82 °FPassing clouds.21 mph79%29.71 "Hg4 mi
4:25 am82 °FPassing clouds.18 mph79%29.71 "Hg4 mi
3:55 am82 °FPassing clouds.17 mph79%29.71 "Hg4 mi
2:55 am82 °FPassing clouds.15 mph79%29.71 "Hg4 mi
1:55 am84 °FPassing clouds.14 mph74%29.74 "Hg4 mi
1:25 am84 °FPassing clouds.15 mph74%29.74 "Hg4 mi
12:55 am84 °FPassing clouds.16 mph74%29.74 "Hg4 mi
12:25 am84 °FPassing clouds.14 mph74%29.77 "Hg4 mi
11:55 pm
Sun, May 24
84 °FPassing clouds.14 mph74%29.77 "Hg4 mi
10:55 pm84 °FPassing clouds.9 mph74%29.77 "Hg4 mi
10:25 pm84 °FPassing clouds.13 mph74%29.77 "Hg4 mi
9:55 pm84 °FPassing clouds.17 mph74%29.77 "Hg4 mi
9:25 pm86 °FPassing clouds.15 mph70%29.74 "Hg4 mi
8:55 pm86 °FClear.7 mph70%29.74 "Hg4 mi
7:55 pm86 °FClear.8 mph70%29.74 "Hg4 mi
7:25 pm88 °FClear.10 mph62%29.71 "Hg4 mi
6:55 pm88 °FClear.17 mph62%29.71 "Hg4 mi
6:25 pm91 °FSunny.17 mph52%29.71 "Hg10 mi
5:55 pm91 °FSunny.15 mph46%29.71 "Hg10 mi
5:25 pm91 °FSunny.17 mph46%29.71 "Hg10 mi
4:55 pm91 °FSunny.18 mph46%29.71 "Hg10 mi
4:25 pm93 °FSunny.21 mph44%29.71 "Hg10 mi
3:55 pm93 °FClear.20 mph47%29.71 "Hg5 mi
3:25 pm95 °FClear.17 mph47%29.71 "Hg4 mi
3:00 pm95 °FClear.22 mph47%29.71 "Hg4 mi
2:30 pm95 °FClear.17 mph47%29.71 "Hg4 mi
2:00 pm97 °FClear.20 mph42%29.74 "Hg4 mi
1:30 pm97 °FClear.16 mph44%29.74 "Hg4 mi
1:00 pm97 °FClear.9 mph44%29.77 "Hg4 mi
12:00 pm95 °FClear.12 mph47%29.77 "Hg4 mi
11:30 am95 °FClear.9 mph50%29.77 "Hg4 mi
11:00 am93 °FClear.13 mph49%29.77 "Hg4 mi
10:30 am93 °FClear.13 mph47%29.77 "Hg4 mi
10:00 am91 °FClear.16 mph56%29.77 "Hg4 mi
9:30 am91 °FClear.15 mph56%29.77 "Hg4 mi
9:00 am90 °FClear.14 mph59%29.77 "Hg4 mi
8:30 am88 °FClear.17 mph66%29.77 "Hg4 mi
Weather by CustomWeather, © 2020

See weather overview

Advertising